Regional Weather Roundup
Issued by NWS Portland, ME

Current Version | Previous Version | Text Only | Print | Product List | Glossary Off
Versions: 1 2 3 4 5 6 7 8 9 10 11 12 13 14 15 16 17 18 19 20 21 22 23 24 25 26 27 28 29 30 31 32 33 34 35 36 37 38 39 40 41 42 43 44 45 46 47 48 49 50
000 ASUS41 KGYX 181905 RWRGYX WEATHER ROUNDUP FOR MAINE AND NEW HAMPSHIRE NATIONAL WEATHER SERVICE GRAY ME 300 PM EDT THU OCT 18 2018 MEZ002-005-006-010-012-015-018-020-021-024-026-027-029-182000- MAINE CITY SKY/WX TMP DP RH WIND PRES REMARKS PORTLAND FAIR 44 17 33 NW20G30 30.14R SANFORD FAIR 42 16 34 W17G25 30.15S BAR HARBOR PTSUNNY 42 14 32 NW15G26 30.00R WISCASSET FAIR 41 16 36 NW12G22 30.12R ROCKLAND FAIR 42 17 36 W26G36 30.04R FRYEBURG PTSUNNY 40 15 36 NW13G23 30.15R LEWISTONAUBURN PTSUNNY 40 16 37 NW23 30.12R AUGUSTA FAIR 40 17 39 W13G28 30.09R WATERVILLE FAIR 40 14 34 NW23G35 30.05R BANGOR FAIR 41 13 31 W17G33 30.01R GREENVILLE N/A 32 17 54 NW20G30 29.95R MILLINOCKET PTSUNNY 39 17 41 NW23G35 29.97R HOULTON PTSUNNY 39 19 44 W22G32 29.88R PRESQUE ISLE FAIR 38 15 39 NW17G41 29.88R FRENCHVILLE CLOUDY 37 16 42 NW23G30 29.85R CARIBOU FAIR 38 16 40 NW15G33 29.86R $$ NHZ002-005-008-009-011-012-014-182000- NEW HAMPSHIRE CITY SKY/WX TMP DP RH WIND PRES REMARKS PORTSMOUTH MOSUNNY 44 15 31 W16G26 30.15S ROCHESTER FAIR 42 17 36 NW14G29 30.15S NASHUA FAIR 45 14 28 NW16G24 30.20S MANCHESTER FAIR 45 12 26 NW16G25 30.18S CONCORD FAIR 43 16 33 NW20G26 30.18S LACONIA FAIR 39 15 37 W15G26 30.17S PLYMOUTH PTSUNNY 41 17 39 W13G28 30.17F BERLIN CLOUDY 35 18 49 W10G30 30.11F WHITEFIELD CLOUDY 37 19 48 W17G25 30.14F JAFFREY FAIR 42 15 33 VRB7G22 30.19R KEENE FAIR 43 14 31 W14G22 30.21F LEBANON FAIR 43 16 33 NW14G24 30.19F MT WASHINGTON SNOWSHWR 9 9 100 NW74G85 N/A VSB 1/8 WCI -23 $$ VTZ005-007-008-182000- VERMONT CITY SKY/WX TMP DP RH WIND PRES REMARKS ST JOHNSBURY N/A 39 19 44 MISG 30.16F MONTPELIER CLOUDY 34 18 52 NW17G24 30.22F BURLINGTON PTSUNNY 39 17 41 W14 30.25S $$ MAZ007-012-024-CTZ003-RIZ002-NYZ038-NYZ072-182000- SOUTHERN NEW ENGLAND AND NY CITY SKY/WX TMP DP RH WIND PRES REMARKS BOSTON FAIR 48 15 26 W22G30 30.20S WORCESTER FAIR 41 17 38 NW18G29 30.18F NANTUCKET FAIR 47 19 33 W18G24 30.20S PROVIDENCE FAIR 48 17 29 NW16 30.22S HARTFORD FAIR 47 16 29 NW17 30.26S ALBANY FAIR 46 17 31 NW13 30.29F NEW YORK CITY FAIR 52 23 32 NW16G26 30.31F $$ ANZ081-ANZ082-ANZ150-NHZ014-MEZ023>029-182000- COASTAL MARINE OBSERVATIONS STATION/POSITION TIME TEMP WIND PRES WAVE AIR SEA DIR/SP/G HT/PER (UTC) (F) (DEG/KT/KT) (MB) (FT/S) MOUNT DESERT ROC 1900 42 290/ 28/ 31 1015.9R MATINICUS ROCK 1800 43 300/ 30/ 36 1016.5R ISLE OF SHOALS 1800 42 290/ 25/ 29 1020.7R JEFFREYS LEDGE 1806 55 N/A 6/ 6 $$ .............KEY.............. WCI - WIND CHILL TC - TEMPERATURE IN CELSIUS VSB - VISIBILITY IN MILES HX - HEAT INDEX FAIR- INDICATES FEW OR NO CLOUDS BELOW 12,000 FT, WITH NO SIGNIFICANT WEATHER AND/OR OBSTRUCTIONS TO VISIBILITY.

USA.gov is the U.S. government's official web portal to all federal, state and local government web resources and services.